Weather History for Gunnison, CO

Change the Weather History Date:

Saturday, January 14, 2012

  Actual Average Record
Temperature  
Mean Temperature 16 °F -  
Max Temperature 37 °F 23 °F 39 °F (1999)
Min Temperature -4 °F 0 °F -29 °F (2008)
Degree Days  
Heating Degree Days 48    
Moisture  
Dew Point -3 °F    
Average Humidity 51    
Maximum Humidity 78    
Minimum Humidity 24    
Precipitation  
Precipitation 0.00 in - - ()
Sea Level Pressure  
Sea Level Pressure 30.35 in    
Wind  
Wind Speed 1 mph (NNE)    
Max Wind Speed 8 mph    
Max Gust Speed -    
Visibility 10 miles    
Events      
Averages and records for this station are not official NWS values.
T = Trace of Precipitation, MM = Missing Value Source: NWS Daily Summary

Daily Weather History Graph

Daily Weather History Graph

Search for Another Location

Airport:

Trip Planner

Search our weather history database for the weather conditions in past years. The results will help you decide how hot, cold, wet, or windy it might be!

Date:

Astronomy

Jan. 14, 2012 Rise Set
Actual Time 7:24 AM MST 5:09 PM MST
Civil Twilight 6:55 AM MST 5:38 PM MST
Nautical Twilight 6:22 AM MST 6:11 PM MST
Astronomical Twilight 5:50 AM MST 6:43 PM MST
Moon 11:28 PM MST (1/14) 10:16 AM MST (1/14)
Length of Visible Light 10h 43m
Length of Day
9h 45m
Waning Gibbous, 68% of the Moon is Illuminated
Jan 14
Waning Gibbous
Jan 16
Last Quarter
Jan 23
New
Jan 30
First Quarter
Feb 7
Full

Hourly Weather History & Observations

Time (MST) Temp. Windchill Dew Point Humidity Pressure Visibility Wind Dir Wind Speed Gust Speed Precip Events Conditions
12:15 AM 3.2 °F - -9.4 °F 56% 30.38 in 10.0 mi Calm Calm - N/A   Clear
12:55 AM 5.0 °F - -7.6 °F 56% 30.39 in 10.0 mi Calm Calm - N/A   Clear
1:15 AM -0.4 °F - -14.8 °F 51% 30.39 in 10.0 mi Calm Calm - N/A   Clear
1:35 AM 3.2 °F -4.2 °F -4.0 °F 72% 30.39 in 10.0 mi NE 3.5 mph - N/A   Clear
1:55 AM 1.4 °F - -11.2 °F 56% 30.41 in 9.0 mi Calm Calm - N/A   Clear
2:15 AM 3.2 °F - -5.8 °F 66% 30.41 in 10.0 mi Calm Calm - N/A   Clear
2:35 AM 1.4 °F - -9.4 °F 61% 30.42 in 10.0 mi Calm Calm - N/A   Clear
2:55 AM 1.4 °F -6.2 °F -9.4 °F 61% 30.42 in 10.0 mi NNE 3.5 mph - N/A   Clear
3:35 AM 1.4 °F - -9.4 °F 61% 30.42 in 10.0 mi Calm Calm - N/A   Clear
3:55 AM -0.4 °F - -7.6 °F 72% 30.42 in 10.0 mi Calm Calm - N/A   Clear
4:15 AM 1.4 °F - -7.6 °F 66% 30.42 in 10.0 mi Calm Calm - N/A   Clear
4:35 AM 1.4 °F - -7.6 °F 66% 30.42 in 10.0 mi Calm Calm - N/A   Clear
5:15 AM -2.2 °F - -11.2 °F 66% 30.43 in 10.0 mi Calm Calm - N/A   Clear
5:35 AM -0.4 °F - -5.8 °F 78% 30.44 in 10.0 mi Calm Calm - N/A   Clear
5:55 AM -0.4 °F - -7.6 °F 72% 30.44 in 10.0 mi Calm Calm - N/A   Clear
6:55 AM -0.4 °F - -7.6 °F 72% 30.45 in 10.0 mi Calm Calm - N/A   Clear
7:35 AM -4.0 °F - -13.0 °F 65% 30.46 in 10.0 mi Calm Calm - N/A   Clear
7:55 AM -2.2 °F - -7.6 °F 78% 30.47 in 10.0 mi Calm Calm - N/A   Clear
8:35 AM 1.4 °F - -7.6 °F 66% 30.47 in 10.0 mi Calm Calm - N/A   Clear
9:36 AM 10.4 °F - -2.2 °F 57% 30.47 in 10.0 mi Calm Calm - N/A   Clear
9:55 AM 12.2 °F - -4.0 °F 48% 30.47 in 10.0 mi Calm Calm - N/A   Clear
10:15 AM 14.0 °F - -0.4 °F 53% 30.47 in 10.0 mi Calm Calm - N/A   Clear
10:55 AM 17.6 °F - -0.4 °F 45% 30.45 in 10.0 mi Calm Calm - N/A   Clear
11:15 AM 19.4 °F - 1.4 °F 46% 30.43 in 10.0 mi Calm Calm - N/A   Clear
11:35 AM 21.2 °F - 1.4 °F 42% 30.41 in 10.0 mi Calm Calm - N/A   Clear
11:55 AM 24.8 °F - 1.4 °F 36% 30.39 in 10.0 mi Calm Calm - N/A   Clear
12:16 PM 26.6 °F - 1.4 °F 34% 30.37 in 10.0 mi Calm Calm - N/A   Clear
12:35 PM 26.6 °F - 3.2 °F 37% 30.35 in 10.0 mi Calm Calm - N/A   Clear
1:15 PM 30.2 °F - 3.2 °F 32% 30.32 in 10.0 mi Calm Calm - N/A   Clear
2:15 PM 35.6 °F - 5.0 °F 28% 30.28 in 10.0 mi Calm Calm - N/A   Clear
2:35 PM 35.6 °F - 5.0 °F 28% 30.27 in 10.0 mi Calm Calm - N/A   Clear
2:55 PM 37.4 °F - 5.0 °F 26% 30.26 in 10.0 mi Calm Calm - N/A   Clear
3:15 PM 37.4 °F - 5.0 °F 26% 30.26 in 10.0 mi Calm Calm - N/A   Clear
3:55 PM 37.4 °F - 5.0 °F 26% 30.25 in 10.0 mi Calm Calm - N/A   Clear
4:55 PM 37.4 °F - 3.2 °F 24% 30.25 in 10.0 mi Calm Calm - N/A   Clear
5:35 PM 30.2 °F 22.6 °F 1.4 °F 29% 30.25 in 10.0 mi NNW 8.1 mph - N/A   Clear
5:55 PM 28.4 °F 22.2 °F 3.2 °F 34% 30.26 in 10.0 mi NNW 5.8 mph - N/A   Clear
6:35 PM 24.8 °F 20.5 °F 3.2 °F 40% 30.26 in 10.0 mi NNE 3.5 mph - N/A   Clear
6:55 PM 24.8 °F 19.1 °F 1.4 °F 36% 30.26 in 10.0 mi NNE 4.6 mph - N/A   Clear
7:15 PM 19.4 °F 14.3 °F -0.4 °F 42% 30.26 in 10.0 mi ENE 3.5 mph - N/A   Clear
7:55 PM 17.6 °F - -2.2 °F 42% 30.26 in 10.0 mi Calm Calm - N/A   Clear
8:35 PM 15.8 °F - -0.4 °F 49% 30.27 in 10.0 mi Calm Calm - N/A   Clear
8:55 PM 14.0 °F - -2.2 °F 49% 30.27 in 10.0 mi Calm Calm - N/A   Clear
9:15 PM 10.4 °F 2.2 °F -4.0 °F 52% 30.27 in 10.0 mi NE 4.6 mph - N/A   Clear
9:35 PM 14.0 °F - 1.4 °F 57% 30.27 in 10.0 mi Calm Calm - N/A   Clear
9:55 PM 12.2 °F 4.3 °F -0.4 °F 57% 30.27 in 10.0 mi NNE 4.6 mph - N/A   Clear
10:15 PM 12.2 °F - -0.4 °F 57% 30.27 in 10.0 mi Calm Calm - N/A   Clear
10:35 PM 10.4 °F 4.0 °F -2.2 °F 57% 30.27 in 10.0 mi NNE 3.5 mph - N/A   Clear
10:55 PM 8.6 °F - -0.4 °F 67% 30.26 in 10.0 mi Calm Calm - N/A   Clear
11:35 PM 6.8 °F - -5.8 °F 56% 30.26 in 10.0 mi Calm Calm - N/A   Clear
11:55 PM 5.0 °F - -2.2 °F 72% 30.25 in 10.0 mi Calm Calm - N/A   Clear